Location: Chi�saz
(46.4729°N, 6.8853°E)
Time: 10:02:37
(UTC+00:00)

Daily predictions for brighter satellites

Satellite Brightness Start Highest point End
(mag) Time Altitude Azimuth Time Altitude Azimuth Time Altitude Azimuth
Radarsat Rocket 4.2 16:49:40 10° SSE 16:56:38 76° ENE 17:02:50 10° NNW
ATLAS 5 CENTAUR R/B 3.4 16:55:35 10° W 16:58:42 21° NNW 17:02:09 10° NNE
Cosmos 1726 Rocket 4.1 16:55:27 10° N 16:59:37 38° ENE 17:03:44 10° SE
CZ-4B R/B 3.7 16:54:41 10° SE 16:59:40 37° ENE 17:04:45 10° N
USA 276 2.6 16:57:10 10° WNW 17:00:13 59° SSW 17:03:15 10° SE
Cosmos 1455 2.2 16:56:27 10° N 17:00:13 85° W 17:03:56 10° S
Cosmos 2084 3.7 16:57:24 10° SW 17:01:16 60° NW 17:05:14 10° NE
Cosmos 1934 Rocket 4.1 16:56:34 10° N 17:02:29 49° ENE 17:08:19 10° SSE
SMAP 3.4 17:00:17 10° S 17:04:56 76° WSW 17:09:37 10° NNW
CZ-2C R/B 3.1 16:59:40 10° NNE 17:05:02 46° E 17:10:24 10° S
Cosmos 2227 Rocket 4.1 17:04:30 10° NNE 17:05:47 11° NNE 17:07:04 10° NE
PSLV R/B 3.9 17:03:07 10° SSE 17:07:07 59° ENE 17:11:06 10° N
Cosmos 1606 Rocket 3.6 17:05:19 10° N 17:09:45 61° ENE 17:14:06 10° SSE
Cosmos 2058 Rocket 3.8 17:09:45 10° N 17:13:45 32° ENE 17:17:41 10° SE
IRIDIUM 103 4.4 17:09:14 10° SSE 17:14:18 55° E 17:19:24 10° NNE
BREEZE-M DEB (TANK) 4.1 16:58:34 10° SW 17:14:43 61° SSE 17:18:38 11° ENE
H-2A R/B 2.1 17:10:30 10° SSE 17:15:37 85° ENE 17:20:56 10° NNW
SJ-11-01 4.5 17:13:22 10° SE 17:17:52 49° ENE 17:22:23 10° N
USA 306 3.7 17:15:44 10° SSW 17:19:33 35° SE 17:23:02 12° ENE
Lacrosse 4 Rocket 1.7 17:15:49 10° NNW 17:20:13 52° NE 17:24:30 10° SE
Cosmos 44 3.6 17:15:48 10° SW 17:21:02 76° NW 17:26:04 10° NNE
Cosmos 921 Rocket 3.5 17:19:09 10° N 17:23:17 38° ENE 17:27:19 10° SE
Meteor 1-21 Rocket 4.2 17:20:01 10° S 17:25:30 66° E 17:30:59 10° NNE
Cosmos 2228 3.5 17:21:17 10° NNW 17:25:40 66° W 17:29:58 10° S
SKYMED 2 3.8 17:21:56 10° NNE 17:26:10 49° E 17:30:23 10° S
YAOGAN 1 3.5 17:23:05 10° ESE 17:26:40 26° ENE 17:30:16 10° N
Lacrosse 5 rocket 1.2 17:23:04 10° SW 17:27:06 89° NW 17:30:34 13° NE
Cosmos 1892 4.3 17:28:50 10° ESE 17:31:01 15° E 17:31:16 15° E
IRIDIUM 106 4.3 17:27:21 10° S 17:32:34 79° E 17:37:48 10° N
deb Chang Zheng 4 3.8 17:31:45 10° SE 17:35:43 43° ENE 17:39:42 10° N
Cosmos 2208 Rocket 4.3 17:30:32 10° NNW 17:35:43 70° WSW 17:40:51 10° S
CZ-4 R/B 2.2 17:33:59 10° SE 17:37:20 27° ENE 17:40:46 10° N
Landsat 5 4.1 17:36:18 10° NNE 17:40:13 36° E 17:44:15 10° SSE
PAYLOAD B 4.5 17:36:54 10° S 17:42:23 74° WSW 17:47:54 10° NNW
Meteor 2-20 Rocket 4.4 17:36:22 10° S 17:42:30 74° E 17:48:40 10° NNE
ERBS 3.8 17:41:06 10° S 17:43:24 19° SE 17:44:01 18° ESE
Cosmos 1656 Rocket 4.2 17:38:31 10° SW 17:44:01 61° WNW 17:49:38 10° NNE
Meteor 2-1 Rocket 4.3 17:38:30 10° NNW 17:44:11 85° W 17:49:44 10° S
Cosmos 2084 Rocket 4.0 17:43:08 10° NNW 17:46:49 34° NE 17:48:57 21° E
Cosmos 1328 3.6 17:48:57 10° S 17:52:51 80° E 17:56:49 10° N
SL-23 DEB 3.5 17:49:22 10° WNW 17:53:22 68° NNE 17:54:59 27° E
SeaSat 1 4.0 17:54:23 17° ESE 17:54:23 17° ESE 17:57:05 10° SE
Helios 1B 4.5 17:52:33 10° NNE 17:56:55 75° ESE 18:01:14 10° S
Cosmos 2369 Rocket 3.5 17:51:39 10° WSW 17:56:56 39° NW 18:02:17 10° NNE
Cosmos 1605 Rocket 4.0 17:51:59 10° N 17:58:18 81° E 18:04:40 10° S
Aureole 1 Rocket 4.3 17:52:30 10° SSW 17:58:30 79° WNW 18:06:13 10° NNE
SL-27 R/B 2.1 17:55:18 10° NNW 17:58:36 77° ENE 18:01:52 10° SSE
Tiangong 2.9 18:00:15 10° SSW 18:02:43 21° SSE 18:03:25 19° SE
HJ-1C 3.5 17:59:54 10° SSE 18:03:00 46° ENE 18:06:07 10° N
USA 307 2.9 17:59:42 10° SW 18:03:53 67° SE 18:05:46 31° ENE
SJ 16-02 3.0 18:00:57 10° SE 18:02:39 17° SE 18:02:39 17° SE
ATLAS 3B R/B 3.4 17:58:19 10° WSW 18:04:45 50° NW 18:11:32 10° NNE
COSMOS 2487 2.8 18:02:09 10° N 18:05:05 37° NE 18:05:05 37° NE
Cosmos 2297 Rocket 3.1 18:00:25 10° N 18:05:19 29° NE 18:06:45 26° ENE
Okean 1-7 Rocket 3.5 18:01:05 10° S 18:05:28 61° E 18:09:51 10° NNE
Lacrosse 5 3.2 18:01:32 10° NW 18:05:46 26° N 18:07:47 20° NE
Cosmos 1892 Rocket 4.1 18:01:41 10° SSW 18:06:04 61° WNW 18:10:30 10° N
NOSS 3-1 (C) 3.6 18:01:28 10° S 18:06:16 40° ESE 18:08:53 26° ENE
Meteor 2-11 Rocket 4.4 18:01:08 10° N 18:07:19 73° E 18:13:27 10° SSE
ISS -3.1 18:05:39 10° WNW 18:08:51 39° NNE 18:09:19 37° NE
H-2A R/B 2.8 18:05:55 10° SE 18:10:09 46° ENE 18:14:20 10° N
Cosmos 968 Rocket 4.3 18:05:15 10° SW 18:10:14 51° WNW 18:15:19 10° NNE
COSMO-SKYMED 1 3.3 18:10:00 10° N 18:14:14 53° WNW 18:18:27 10° SSW
USA 229 DEB 4.4 18:09:23 10° SSE 18:14:28 26° ESE 18:15:04 26° ESE
USA 229 4.4 18:09:31 10° SSE 18:14:35 26° ESE 18:15:07 26° ESE
Cosmos 2173 Rocket 4.3 18:10:13 10° N 18:16:07 43° ENE 18:22:02 10° SE
USA 234 3.2 18:11:59 22° ENE 18:16:27 75° SE 18:22:58 10° SW
CSL-04 Rocket 4.1 18:14:13 24° ESE 18:16:47 38° ENE 18:21:47 10° N
Cosmos 1727 Rocket 4.0 18:12:35 10° S 18:18:50 65° E 18:25:08 10° NNE
Cosmos 1869 4.3 18:15:13 10° N 18:17:43 30° NNE 18:17:43 30° NNE
X-37B 1.1 18:16:49 10° WSW 18:19:15 41° S 18:19:15 41° S
CSL-04 Debris 4.4 18:15:33 13° SE 18:20:00 44° ENE 18:25:06 10° N
Cosmos 1812 Rocket 3.7 18:17:51 10° N 18:22:04 46° ENE 18:22:44 42° ESE
ARGOS 4.3 18:17:39 10° S 18:22:44 44° W 18:27:54 10° NNW
USA 305 2.8 18:19:25 10° WSW 18:23:38 83° NNW 18:24:49 46° NE
SL-24 R/B - RUBIN 2 4.3 18:22:11 10° SSW 18:27:31 46° ESE 18:28:26 41° E
NOSS 8 (H) 4.2 18:24:31 10° SW 18:27:40 72° S 18:27:40 72° S
USA 308 2.8 18:24:07 10° WSW 18:28:21 87° NNW 18:29:18 53° NE
CZ-4C R/B 2.7 18:28:32 60° N 18:29:05 87° WNW 18:32:22 10° SSW
CZ-2C R/B 4.0 18:29:50 10° SSW 18:30:51 11° SSW 18:31:53 10° S
CENTAUR R/B 4.4 18:25:33 10° NW 18:31:00 22° N 18:34:23 17° NE
Okean O Rocket 2.9 18:28:15 10° S 18:32:21 41° W 18:36:29 10° NNW
DMSP B5D2-2 4.1 18:30:15 10° NNE 18:35:34 81° WNW 18:40:50 10° SSW
Timation 1 Rocket 4.3 18:32:18 10° NNW 18:38:11 57° ENE 18:39:52 43° ESE
NOSS 3-1 (A) 3.7 18:34:53 10° S 18:39:10 38° SE 18:39:10 38° SE
Okean-O 2.5 18:39:53 64° ENE 18:39:55 64° ENE 18:44:20 10° N
Cosmos 1271 Rocket 2.7 18:36:12 10° NNW 18:39:59 78° W 18:41:55 28° S
Cosmos 1354 Rocket 3.9 18:34:45 10° SSW 18:40:04 83° ESE 18:42:56 28° NNE
Cosmos 2263 Rocket 4.3 18:37:51 10° N 18:38:46 11° NNE 18:38:46 11° NNE
NOSS 2-3 (D) 3.3 18:38:07 10° SSW 18:42:01 70° SE 18:42:01 70° SE
ATLAS 5 CENTAUR R/B 4.2 18:44:08 10° NNW 18:45:12 11° N 18:46:13 10° N
BREEZE-M DEB (TANK) 4.2 18:42:47 10° W 18:45:54 32° SSW 18:49:51 17° SSE
Cosmos 1503 Rocket 4.1 18:40:56 10° SSW 18:46:18 75° WNW 18:49:52 22° NNE
IRS-1C Rocket 3.9 18:42:07 10° SSE 18:47:22 84° ENE 18:52:40 10° NNW
In-Cosmos 22 Rocket 4.2 18:41:43 10° S 18:47:33 83° E 18:53:23 10° NNE
Cosmos 1626 Rocket 3.9 18:43:37 10° SSW 18:48:01 65° W 18:52:02 12° N
Cosmos 1408 2.9 18:45:19 10° SSW 18:48:38 63° WSW 18:48:38 63° WSW
NOSS 2-3 (C) 3.4 18:47:23 10° SW 18:51:14 84° SW 18:51:14 84° SW
Cosmos 2227 Rocket 2.8 18:46:06 10° NNW 18:50:37 39° NNE 18:50:37 39° NNE
Meteor 1-27 4.3 18:46:01 10° NNW 18:51:45 79° W 18:57:20 10° S
Cosmos 158 Rocket 4.5 18:46:50 10° NNW 18:51:10 45° NNE 18:51:10 45° NNE
Cosmos 1602 Rocket 3.6 18:50:40 10° SSW 18:55:08 80° W 18:56:05 55° N
BREEZE-M DEB (TANK) 2.6 18:52:20 10° WNW 18:57:27 68° W 18:57:27 68° W
Lacrosse 4 Rocket 4.2 18:55:17 10° WNW 18:58:29 20° WSW 19:01:39 10° SSW
USA 306 3.4 18:55:08 10° WSW 18:59:00 53° NW 18:59:00 53° NW
Cosmos 1725 Rocket 4.2 18:53:56 10° N 18:59:03 48° NE 18:59:03 48° NE
Cosmos 2219 3.8 18:56:15 10° NNW 19:00:42 43° NNE 19:00:42 43° NNE
Cosmos 2100 Rocket 4.0 18:56:01 10° N 19:02:22 85° W 19:08:44 10° S
YAOGAN 1 4.2 18:58:42 10° SSW 19:02:38 34° W 19:06:36 10° NNW
Cosmos 1892 3.8 19:02:35 10° SSW 19:06:15 43° WNW 19:06:16 43° WNW
Lacrosse 5 rocket 3.1 19:03:24 10° WNW 19:06:09 23° NNW 19:06:09 23° NNW
Cosmos 1656 4.3 19:02:20 10° S 19:06:02 42° S 19:06:02 42° S
Cosmos 1932 4.4 19:03:21 10° NNW 19:09:36 65° NE 19:09:36 65° NE
CZ-4 R/B 3.4 19:08:54 10° SSW 19:12:16 27° W 19:15:43 10° NW
Cosmos 1777 Rocket 4.2 19:11:39 10° SSW 19:16:14 68° SW 19:16:14 68° SW
Cosmos 1864 Rocket 4.5 19:16:55 10° N 19:22:41 72° NNE 19:22:41 72° NNE
Cosmos 2016 Rocket 3.9 19:20:45 10° N 19:26:40 81° NNW 19:26:40 81° NNW
Cosmos 1459 Rocket 4.4 19:21:23 10° NNW 19:27:30 61° W 19:33:29 10° S
SeaSat 1 3.8 19:34:11 33° SW 19:34:11 33° SW 19:36:51 10° SW
Cosmos 1802 Rocket 4.3 19:32:11 10° NNW 19:38:15 62° W 19:40:00 45° SSW
SJ 16-02 3.6 19:38:16 10° SW 19:39:42 19° SW 19:39:42 19° SW
Cosmos 2297 Rocket 3.0 19:44:10 10° NW 19:48:37 47° WNW 19:48:37 47° WNW
Lacrosse 5 3.7 19:44:46 10° NW 19:46:59 25° NW 19:46:59 25° NW
NOSS 3-1 (C) 4.3 19:51:51 10° WSW 19:56:21 41° NW 19:56:21 41° NW
ATLAS 3B R/B 4.4 19:52:03 10° WNW 19:57:11 22° NNW 19:58:49 20° N
USA 234 3.8 19:59:20 49° NNW 19:59:20 49° NNW 20:05:30 10° W
USA 229 DEB 4.4 19:58:23 10° SW 20:02:35 44° WSW 20:02:35 44° WSW
USA 229 4.4 19:58:28 10° SW 20:02:37 43° WSW 20:02:37 43° WSW
CENTAUR R/B 4.3 20:17:01 10° NW 20:21:34 30° N 20:21:34 30° N
Cosmos 2227 Rocket 4.4 20:30:23 10° NW 20:32:28 21° WNW 20:32:28 21° WNW
